{"data":{"norad_id":63301,"epoch":"2026-05-25T03:41:44.297952Z","epoch_age_seconds":68561,"freshness":"FRESH","line1":"1 63301U 25056B   26145.15398493  .00001301  00000+0  21312-3 0  9997","line2":"2 63301  97.9065 269.9062 0004485  54.8977 305.2650 14.72391539 63741","mean_motion":14.72391539,"eccentricity":0.0004485,"inclination_deg":97.9065,"raan_deg":269.9062,"arg_perigee_deg":54.8977,"mean_anomaly_deg":305.265,"bstar":0.00021312,"rev_number":6374,"period_min":97.800073000827,"perigee_km":650.29004354452,"apogee_km":656.59737143914,"semimajor_km":7031.5807074918,"source":"CELESTRAK","updated_at":"2026-05-25T13:38:03.647777Z"}}